Lapse_Rate
5.3 6.2 6.2 6.0 6.2 6.3 6.0 5.8 4.5 4.5 4.5 4.3 4.1 4.0 3.7 4.2 4.0 3.6 4.2 4.0 4.0 3.9
5.3 5.4 5.9 5.6 5.1 5.6 5.5 5.5 5.2 4.8 4.8 4.7 4.5 4.5 4.1 4.3 4.1 4.0 3.8 4.1 4.3 4.7
5.7 5.3 5.2 5.0 5.2 5.3 5.4 5.2 5.2 5.1 5.1 5.1 4.9 4.8 4.4 4.7 4.4 4.1 4.4 4.7 4.5 4.7
5.2 5.2 5.0 5.0 5.1 5.0 5.1 5.2 5.2 5.2 5.2 5.2 5.3 5.2 4.9 5.1 5.0 4.5 4.4 4.3 4.4 4.7
5.2 5.4 5.2 5.3 5.3 5.2 5.3 5.6 5.5 5.5 5.5 5.5 5.6 5.4 5.4 5.3 5.5 4.9 4.9 4.9 4.8 5.1
5.1 5.4 5.4 5.6 5.5 5.4 5.3 5.7 6.1 6.2 6.4 6.5 6.2 6.1 5.7 5.5 5.4 5.0 4.9 5.1 5.0 5.1
4.8 4.8 5.1 5.2 5.1 5.1 5.2 5.6 5.7 5.9 6.1 6.3 6.7 6.8 6.4 6.2 5.4 5.1 4.8 4.7 4.8 5.3
5.1 5.4 5.3 5.2 5.2 5.2 5.3 5.4 5.5 5.9 6.0 6.0 6.5 6.9 6.7 6.4 5.9 5.7 5.5 4.8 5.1 5.1
5.7 5.6 5.5 5.5 5.5 5.7 5.8 6.1 6.3 6.2 6.0 5.9 6.6 5.2 2.5 4.7 6.3 5.3 5.2 5.0 5.2 5.6
6.1 6.1 6.1 6.2 6.2 6.2 6.1 6.2 6.4 6.5 6.8 6.8 6.7 4.3 2.8 1.7 6.9 6.5 5.9 5.7 5.3 6.1
6.9 7.0 7.2 7.1 7.2 7.2 7.1 7.1 7.0 6.9 7.1 7.2 7.6 4.4 3.6 2.4 6.7 7.2 6.5 6.5 6.0 6.4
7.6 7.7 7.7 7.7 7.6 7.7 7.7 7.2 7.4 8.1 7.9 8.0 7.6 5.7 4.2 4.0 7.7 8.1 6.9 6.3 6.5 6.9
8.1 8.5 8.9 9.0 9.3 9.1 8.5 8.4 8.2 8.1 8.1 7.5 7.6 6.9 5.6 5.8 8.4 9.3 7.7 7.0 6.7 4.9
8.7 9.3 9.4 9.5 9.5 9.8 9.4 9.1 9.5 9.3 8.8 7.8 7.3 7.2 6.4 5.4 6.7 7.6 8.2 7.0 7.0 7.4
Wind_Speed
9 6 5 6 5 5 5 5 7 6 6 6 6 5 5 5 5 6 4 6 5 3
10 9 8 9 9 8 9 8 9 8 8 7 6 6 5 4 3 4 3 4 4 4
11 13 13 12 10 12 13 11 11 11 11 10 8 8 7 5 5 3 3 3 4 4
12 13 14 11 15 15 15 15 14 14 13 12 11 10 8 8 7 6 5 4 4 5
11 11 11 12 16 19 16 17 18 17 14 14 14 13 10 10 9 8 7 6 7 6
10 11 12 13 15 18 18 19 20 19 14 14 13 12 14 12 11 10 10 8 8 7
13 13 12 13 14 15 17 14 16 19 18 17 18 16 14 14 13 13 11 10 9 9
13 13 13 14 14 18 17 16 19 15 17 19 16 13 16 16 16 14 13 11 10 10
14 15 14 15 15 15 16 17 15 17 17 18 13 20 22 18 15 15 14 12 11 10
14 15 15 16 16 16 16 17 17 18 18 19 18 19 22 21 16 15 15 14 11 10
15 16 16 16 17 17 16 17 16 17 19 19 16 18 20 20 20 16 16 15 12 12
16 17 17 18 18 17 16 17 17 18 20 21 20 20 18 19 19 17 18 15 14 13
16 16 17 18 17 15 14 15 13 16 17 22 21 23 21 19 13 17 13 13 14 15
16 17 16 17 15 14 15 15 16 16 14 17 18 19 22 14 12 11 10 9 8 10
Wind_Direction
259 264 276 283 295 296 301 306 306 310 314 326 327 326 347 357 14 15 10 8 0 345
251 251 259 267 271 277 279 278 280 283 283 288 296 297 303 311 335 340 356 352 344 336
268 261 258 259 258 260 267 266 266 266 264 264 264 262 260 272 271 292 315 320 320 328
264 261 262 261 261 255 260 259 257 258 258 255 254 253 251 250 255 256 266 275 293 290
284 282 275 270 272 275 268 267 262 259 255 255 253 246 243 248 245 245 251 258 264 275
329 320 309 301 296 292 284 278 271 264 260 259 255 251 244 241 244 240 242 245 254 266
355 347 340 332 326 319 310 299 290 282 271 260 256 252 249 246 239 234 232 235 242 251
352 348 345 342 336 328 319 310 303 295 285 273 264 252 242 239 237 234 234 226 232 236
348 344 342 339 335 331 327 321 313 304 293 285 272 256 236 228 235 231 226 228 230 236
342 337 334 331 328 326 323 319 316 311 304 293 283 267 252 225 235 234 227 225 216 226
333 329 327 324 322 320 319 316 314 313 311 303 294 274 258 234 240 232 228 227 219 220
328 325 325 324 321 319 318 317 314 315 315 313 305 295 268 247 253 233 225 218 214 215
321 320 319 320 318 317 313 311 312 312 311 313 310 308 295 266 261 241 232 220 215 199
322 320 317 317 318 314 312 308 306 305 307 310 310 314 312 279 263 256 256 240 227 230